Time,TemperatureF,DewpointF,PressureIn,WindDirection,WindDirectionDegrees,WindSpeedMPH,WindSpeedGustMPH,Humidity,HourlyPrecipIn,Conditions,Clouds,dailyrainin,SoftwareType,DateUTC
2013-02-03 00:00:00,42.3,35.3,30.06,South,169,1.0,1.0,76,0.00,,,0.00,Wunderground v.1.15,2013-02-03 05:00:00,
2013-02-03 00:05:00,42.2,35.5,30.05,SE,139,1.0,1.0,77,0.00,,,0.00,Wunderground v.1.15,2013-02-03 05:05:00,
2013-02-03 00:10:00,42.0,35.6,30.05,SE,146,1.0,1.0,78,0.00,,,0.00,Wunderground v.1.15,2013-02-03 05:10:00,
2013-02-03 00:15:00,41.9,35.9,30.05,WNW,302,1.0,2.0,79,0.00,,,0.00,Wunderground v.1.15,2013-02-03 05:15:00,
2013-02-03 00:20:00,41.7,36.0,30.04,WNW,302,0.0,0.0,80,0.00,,,0.00,Wunderground v.1.15,2013-02-03 05:20:00,
2013-02-03 00:25:00,41.5,36.1,30.04,SSE,150,0.0,0.0,81,0.00,,,0.00,Wunderground v.1.15,2013-02-03 05:25:00,
2013-02-03 00:30:00,41.4,36.0,30.04,SSE,150,0.0,0.0,81,0.00,,,0.00,Wunderground v.1.15,2013-02-03 05:30:00,
2013-02-03 00:35:00,41.3,35.9,30.03,SSE,149,0.0,0.0,81,0.00,,,0.00,Wunderground v.1.15,2013-02-03 05:35:00,
2013-02-03 00:40:00,41.3,36.2,30.03,SE,144,0.0,0.0,82,0.00,,,0.00,Wunderground v.1.15,2013-02-03 05:40:00,
2013-02-03 00:45:00,41.3,36.2,30.02,SSW,192,0.0,2.0,82,0.00,,,0.00,Wunderground v.1.15,2013-02-03 05:45:00,
2013-02-03 00:50:00,41.2,36.1,30.03,South,191,0.0,0.0,82,0.00,,,0.00,Wunderground v.1.15,2013-02-03 05:50:00,
2013-02-03 00:55:00,41.2,36.4,30.02,South,191,0.0,0.0,83,0.00,,,0.00,Wunderground v.1.15,2013-02-03 05:55:00,
2013-02-03 01:00:00,41.2,36.4,30.02,SSW,197,0.0,0.0,83,0.00,,,0.00,Wunderground v.1.15,2013-02-03 06:00:00,
2013-02-03 01:05:00,41.1,36.3,30.01,SSW,212,0.0,0.0,83,0.00,,,0.00,Wunderground v.1.15,2013-02-03 06:05:00,
2013-02-03 01:15:00,41.1,36.3,30.01,SSW,212,0.0,0.0,83,0.00,,,0.00,Wunderground v.1.15,2013-02-03 06:15:00,
2013-02-03 01:20:00,41.1,36.3,30.01,SSW,212,0.0,0.0,83,0.00,,,0.00,Wunderground v.1.15,2013-02-03 06:20:00,
2013-02-03 01:25:00,41.0,36.2,30.01,SW,215,0.0,0.0,83,0.00,,,0.00,Wunderground v.1.15,2013-02-03 06:25:00,
2013-02-03 01:30:00,40.9,35.5,30.01,WNW,301,0.0,0.0,81,0.00,,,0.00,Wunderground v.1.15,2013-02-03 06:30:00,
2013-02-03 01:35:00,40.8,35.1,30.01,SSW,205,0.0,0.0,80,0.00,,,0.00,Wunderground v.1.15,2013-02-03 06:35:00,
2013-02-03 01:45:00,40.8,34.8,30.00,SSE,167,1.0,3.0,79,0.00,,,0.00,Wunderground v.1.15,2013-02-03 06:45:00,
2013-02-03 01:50:00,40.8,34.8,30.00,WNW,302,1.0,2.0,79,0.00,,,0.00,Wunderground v.1.15,2013-02-03 06:50:00,
2013-02-03 01:55:00,40.8,34.8,30.00,West,279,1.0,2.0,79,0.00,,,0.00,Wunderground v.1.15,2013-02-03 06:55:00,
2013-02-03 02:00:00,40.7,34.7,30.00,WNW,296,1.0,2.0,79,0.00,,,0.00,Wunderground v.1.15,2013-02-03 07:00:00,
2013-02-03 02:05:00,40.7,34.7,30.00,SSW,205,1.0,2.0,79,0.00,,,0.00,Wunderground v.1.15,2013-02-03 07:05:00,
2013-02-03 02:15:00,40.6,34.9,30.00,South,171,1.0,3.0,80,0.00,,,0.00,Wunderground v.1.15,2013-02-03 07:15:00,
2013-02-03 02:20:00,40.5,35.1,30.00,NNW,328,1.0,3.0,81,0.00,,,0.00,Wunderground v.1.15,2013-02-03 07:20:00,
2013-02-03 02:25:00,40.4,35.0,30.00,WNW,285,1.0,3.0,81,0.00,,,0.00,Wunderground v.1.15,2013-02-03 07:25:00,
2013-02-03 02:30:00,40.4,35.0,29.99,WNW,285,0.0,0.0,81,0.00,,,0.00,Wunderground v.1.15,2013-02-03 07:30:00,
2013-02-03 02:35:00,40.3,34.9,29.99,WNW,288,0.0,1.0,81,0.00,,,0.00,Wunderground v.1.15,2013-02-03 07:35:00,
2013-02-03 02:45:00,40.1,34.7,29.99,SSW,203,0.0,1.0,81,0.00,,,0.00,Wunderground v.1.15,2013-02-03 07:45:00,
2013-02-03 02:50:00,40.0,34.9,30.00,SW,218,0.0,0.0,82,0.00,,,0.00,Wunderground v.1.15,2013-02-03 07:50:00,
2013-02-03 02:55:00,39.8,34.8,30.00,WSW,249,0.0,0.0,82,0.00,,,0.00,Wunderground v.1.15,2013-02-03 07:55:00,
2013-02-03 03:05:00,39.5,34.8,29.99,West,262,0.0,0.0,83,0.00,,,0.00,Wunderground v.1.15,2013-02-03 08:05:00,
2013-02-03 03:15:00,39.3,34.6,29.99,West,262,0.0,0.0,83,0.00,,,0.00,Wunderground v.1.15,2013-02-03 08:15:00,
2013-02-03 03:25:00,38.9,34.2,29.98,West,262,0.0,0.0,83,0.00,,,0.00,Wunderground v.1.15,2013-02-03 08:25:00,
2013-02-03 03:30:00,38.7,34.0,29.98,West,262,0.0,0.0,83,0.00,,,0.00,Wunderground v.1.15,2013-02-03 08:30:00,
2013-02-03 03:35:00,38.5,34.1,29.97,West,262,0.0,0.0,84,0.00,,,0.00,Wunderground v.1.15,2013-02-03 08:35:00,
2013-02-03 03:40:00,38.2,33.8,29.97,West,262,0.0,0.0,84,0.00,,,0.00,Wunderground v.1.15,2013-02-03 08:40:00,
2013-02-03 03:45:00,37.7,33.3,29.97,West,262,0.0,0.0,84,0.00,,,0.00,Wunderground v.1.15,2013-02-03 08:45:00,
2013-02-03 03:55:00,36.8,32.7,29.97,West,262,0.0,0.0,85,0.00,,,0.00,Wunderground v.1.15,2013-02-03 08:55:00,
2013-02-03 04:00:00,36.4,32.3,29.97,West,262,0.0,0.0,85,0.00,,,0.00,Wunderground v.1.15,2013-02-03 09:00:00,
2013-02-03 04:05:00,36.0,32.2,29.96,West,262,0.0,0.0,86,0.00,,,0.00,Wunderground v.1.15,2013-02-03 09:05:00,
2013-02-03 04:15:00,35.2,31.4,29.96,West,262,0.0,0.0,86,0.00,,,0.00,Wunderground v.1.15,2013-02-03 09:15:00,
2013-02-03 04:20:00,34.9,31.4,29.96,West,262,0.0,0.0,87,0.00,,,0.00,Wunderground v.1.15,2013-02-03 09:20:00,
2013-02-03 04:30:00,34.3,30.8,29.96,West,262,0.0,0.0,87,0.00,,,0.00,Wunderground v.1.15,2013-02-03 09:30:00,
2013-02-03 04:35:00,33.9,30.7,29.96,West,262,0.0,0.0,88,0.00,,,0.00,Wunderground v.1.15,2013-02-03 09:35:00,
2013-02-03 04:40:00,33.6,30.4,29.96,West,262,0.0,0.0,88,0.00,,,0.00,Wunderground v.1.15,2013-02-03 09:40:00,
2013-02-03 04:45:00,33.4,30.5,29.96,West,262,0.0,0.0,89,0.00,,,0.00,Wunderground v.1.15,2013-02-03 09:45:00,
2013-02-03 04:50:00,33.1,30.2,29.96,West,262,0.0,0.0,89,0.00,,,0.00,Wunderground v.1.15,2013-02-03 09:50:00,
2013-02-03 04:55:00,32.9,30.0,29.96,West,262,0.0,0.0,89,0.00,,,0.00,Wunderground v.1.15,2013-02-03 09:55:00,
2013-02-03 05:05:00,32.6,30.0,29.96,West,262,0.0,0.0,90,0.00,,,0.00,Wunderground v.1.15,2013-02-03 10:05:00,
2013-02-03 05:15:00,32.6,30.3,29.96,West,262,0.0,0.0,91,0.00,,,0.00,Wunderground v.1.15,2013-02-03 10:15:00,
2013-02-03 05:20:00,32.7,30.4,29.95,West,262,0.0,0.0,91,0.00,,,0.00,Wunderground v.1.15,2013-02-03 10:20:00,
2013-02-03 05:30:00,32.8,30.7,29.95,West,262,0.0,0.0,92,0.00,,,0.00,Wunderground v.1.15,2013-02-03 10:30:00,
2013-02-03 05:35:00,32.8,30.7,29.95,West,262,0.0,0.0,92,0.00,,,0.00,Wunderground v.1.15,2013-02-03 10:35:00,
2013-02-03 05:40:00,33.0,30.9,29.95,West,262,0.0,0.0,92,0.00,,,0.00,Wunderground v.1.15,2013-02-03 10:40:00,
2013-02-03 05:50:00,33.2,31.4,29.95,West,262,0.0,0.0,93,0.00,,,0.00,Wunderground v.1.15,2013-02-03 10:50:00,
2013-02-03 05:55:00,33.4,31.6,29.95,West,262,0.0,0.0,93,0.00,,,0.00,Wunderground v.1.15,2013-02-03 10:55:00,
2013-02-03 06:00:00,33.5,31.7,29.95,West,262,0.0,0.0,93,0.00,,,0.00,Wunderground v.1.15,2013-02-03 11:00:00,
2013-02-03 06:05:00,33.7,31.9,29.95,West,262,0.0,0.0,93,0.00,,,0.00,Wunderground v.1.15,2013-02-03 11:05:00,
2013-02-03 06:15:00,33.8,32.0,29.95,West,262,0.0,0.0,93,0.00,,,0.00,Wunderground v.1.15,2013-02-03 11:15:00,
2013-02-03 06:20:00,34.0,32.2,29.95,West,262,0.0,0.0,93,0.00,,,0.00,Wunderground v.1.15,2013-02-03 11:20:00,
2013-02-03 06:25:00,34.2,32.7,29.95,West,262,0.0,0.0,94,0.00,,,0.00,Wunderground v.1.15,2013-02-03 11:25:00,
2013-02-03 06:30:00,34.4,32.9,29.95,West,262,0.0,0.0,94,0.00,,,0.00,Wunderground v.1.15,2013-02-03 11:30:00,
2013-02-03 06:35:00,34.4,32.9,29.95,West,262,0.0,0.0,94,0.00,,,0.00,Wunderground v.1.15,2013-02-03 11:35:00,
2013-02-03 06:45:00,34.8,33.2,29.94,West,262,0.0,0.0,94,0.00,,,0.00,Wunderground v.1.15,2013-02-03 11:45:00,
2013-02-03 06:50:00,34.8,33.2,29.94,West,262,0.0,0.0,94,0.00,,,0.00,Wunderground v.1.15,2013-02-03 11:50:00,
2013-02-03 06:55:00,34.9,33.3,29.95,West,262,0.0,0.0,94,0.00,,,0.00,Wunderground v.1.15,2013-02-03 11:55:00,
2013-02-03 07:00:00,34.9,33.3,29.95,West,262,0.0,0.0,94,0.00,,,0.00,Wunderground v.1.15,2013-02-03 12:00:00,
2013-02-03 07:05:00,34.9,33.3,29.95,West,262,0.0,0.0,94,0.00,,,0.00,Wunderground v.1.15,2013-02-03 12:05:00,
2013-02-03 07:15:00,35.1,33.5,29.96,West,262,0.0,0.0,94,0.00,,,0.00,Wunderground v.1.15,2013-02-03 12:15:00,
2013-02-03 07:20:00,35.2,33.6,29.96,West,262,0.0,0.0,94,0.00,,,0.00,Wunderground v.1.15,2013-02-03 12:20:00,
2013-02-03 07:25:00,35.3,33.7,29.96,West,262,0.0,0.0,94,0.00,,,0.00,Wunderground v.1.15,2013-02-03 12:25:00,
2013-02-03 07:30:00,35.4,33.8,29.96,West,262,0.0,0.0,94,0.00,,,0.00,Wunderground v.1.15,2013-02-03 12:30:00,
2013-02-03 07:35:00,35.5,33.9,29.96,West,262,0.0,0.0,94,0.00,,,0.00,Wunderground v.1.15,2013-02-03 12:35:00,
2013-02-03 07:40:00,35.6,34.0,29.96,West,262,0.0,0.0,94,0.00,,,0.00,Wunderground v.1.15,2013-02-03 12:40:00,
2013-02-03 07:50:00,35.7,34.1,29.97,West,262,0.0,1.0,94,0.00,,,0.00,Wunderground v.1.15,2013-02-03 12:50:00,
2013-02-03 07:55:00,36.0,34.7,29.97,West,262,0.0,1.0,95,0.00,,,0.00,Wunderground v.1.15,2013-02-03 12:55:00,
2013-02-03 08:00:00,36.1,34.8,29.97,West,262,0.0,0.0,95,0.00,,,0.00,Wunderground v.1.15,2013-02-03 13:00:00,
2013-02-03 08:05:00,36.3,34.7,29.97,West,262,0.0,1.0,94,0.00,,,0.00,Wunderground v.1.15,2013-02-03 13:05:00,
2013-02-03 08:15:00,36.6,35.0,29.97,West,262,0.0,0.0,94,0.00,,,0.00,Wunderground v.1.15,2013-02-03 13:15:00,
2013-02-03 08:25:00,36.9,35.3,29.97,West,262,0.0,0.0,94,0.00,,,0.00,Wunderground v.1.15,2013-02-03 13:25:00,
2013-02-03 08:30:00,37.1,35.5,29.97,West,262,0.0,0.0,94,0.00,,,0.00,Wunderground v.1.15,2013-02-03 13:30:00,
2013-02-03 08:35:00,37.4,35.8,29.97,West,262,0.0,0.0,94,0.00,,,0.00,Wunderground v.1.15,2013-02-03 13:35:00,
2013-02-03 08:40:00,37.5,35.9,29.97,West,261,0.0,0.0,94,0.00,,,0.00,Wunderground v.1.15,2013-02-03 13:40:00,
2013-02-03 08:45:00,37.7,35.9,29.97,SW,225,0.0,0.0,93,0.00,,,0.00,Wunderground v.1.15,2013-02-03 13:45:00,
2013-02-03 08:55:00,38.0,36.2,29.97,SW,225,0.0,0.0,93,0.00,,,0.00,Wunderground v.1.15,2013-02-03 13:55:00,
2013-02-03 09:00:00,38.2,36.1,29.97,WSW,258,0.0,1.0,92,0.00,,,0.00,Wunderground v.1.15,2013-02-03 14:00:00,
2013-02-03 09:05:00,38.3,35.9,29.97,South,169,0.0,1.0,91,0.00,,,0.00,Wunderground v.1.15,2013-02-03 14:05:00,
2013-02-03 09:15:00,38.5,35.8,29.96,SE,130,0.0,0.0,90,0.00,,,0.00,Wunderground v.1.15,2013-02-03 14:15:00,
2013-02-03 09:20:00,38.7,35.2,29.96,South,182,1.0,1.0,87,0.00,,,0.00,Wunderground v.1.15,2013-02-03 14:20:00,
2013-02-03 09:30:00,39.5,34.5,29.96,WSW,257,1.0,1.0,82,0.00,,,0.00,Wunderground v.1.15,2013-02-03 14:30:00,
2013-02-03 09:35:00,40.1,34.1,29.96,SSE,167,1.0,1.0,79,0.00,,,0.00,Wunderground v.1.15,2013-02-03 14:35:00,
2013-02-03 09:40:00,40.5,34.2,29.97,South,174,1.0,4.0,78,0.00,,,0.00,Wunderground v.1.15,2013-02-03 14:40:00,
2013-02-03 09:45:00,40.8,33.5,29.96,WSW,247,1.0,4.0,75,0.00,,,0.00,Wunderground v.1.15,2013-02-03 14:45:00,
2013-02-03 09:50:00,41.1,33.4,29.96,WNW,290,1.0,3.0,74,0.00,,,0.00,Wunderground v.1.15,2013-02-03 14:50:00,
2013-02-03 09:55:00,41.2,32.9,29.97,WNW,289,1.0,5.0,72,0.00,,,0.00,Wunderground v.1.15,2013-02-03 14:55:00,
2013-02-03 10:05:00,41.5,32.1,29.97,SE,138,2.0,6.0,69,0.00,,,0.00,Wunderground v.1.15,2013-02-03 15:05:00,
2013-02-03 10:15:00,41.8,32.4,29.97,West,277,2.0,2.0,69,0.00,,,0.00,Wunderground v.1.15,2013-02-03 15:15:00,
2013-02-03 10:20:00,42.1,31.9,29.97,WNW,300,2.0,3.0,67,0.00,,,0.00,Wunderground v.1.15,2013-02-03 15:20:00,
2013-02-03 10:30:00,42.5,31.6,29.97,ESE,110,2.0,7.0,65,0.00,,,0.00,Wunderground v.1.15,2013-02-03 15:30:00,
2013-02-03 10:35:00,43.1,31.4,29.97,WNW,302,2.0,7.0,63,0.00,,,0.00,Wunderground v.1.15,2013-02-03 15:35:00,
2013-02-03 10:40:00,43.2,30.2,29.96,NW,319,2.0,2.0,60,0.00,,,0.00,Wunderground v.1.15,2013-02-03 15:40:00,
2013-02-03 10:50:00,43.5,30.1,29.96,NNW,329,2.0,4.0,59,0.00,,,0.00,Wunderground v.1.15,2013-02-03 15:50:00,
2013-02-03 10:55:00,43.6,29.8,29.96,ESE,123,2.0,4.0,58,0.00,,,0.00,Wunderground v.1.15,2013-02-03 15:55:00,
2013-02-03 11:00:00,43.8,30.0,29.96,NW,315,2.0,4.0,58,0.00,,,0.00,Wunderground v.1.15,2013-02-03 16:00:00,
2013-02-03 11:05:00,43.8,29.1,29.96,SSE,153,2.0,4.0,56,0.00,,,0.00,Wunderground v.1.15,2013-02-03 16:05:00,
2013-02-03 11:15:00,43.5,28.8,29.96,NW,307,2.0,3.0,56,0.00,,,0.00,Wunderground v.1.15,2013-02-03 16:15:00,
2013-02-03 11:20:00,43.6,28.9,29.96,SSW,195,2.0,2.0,56,0.00,,,0.00,Wunderground v.1.15,2013-02-03 16:20:00,
2013-02-03 11:25:00,44.0,29.7,29.95,WNW,302,2.0,2.0,57,0.00,,,0.00,Wunderground v.1.15,2013-02-03 16:25:00,
2013-02-03 11:30:00,44.2,29.5,29.94,NW,325,2.0,2.0,56,0.00,,,0.00,Wunderground v.1.15,2013-02-03 16:30:00,
2013-02-03 11:35:00,44.3,29.1,29.94,ESE,114,2.0,4.0,55,0.00,,,0.00,Wunderground v.1.15,2013-02-03 16:35:00,
2013-02-03 11:45:00,44.3,29.1,29.94,SE,125,1.0,1.0,55,0.00,,,0.00,Wunderground v.1.15,2013-02-03 16:45:00,
2013-02-03 11:50:00,44.8,28.7,29.94,WNW,300,1.0,5.0,53,0.00,,,0.00,Wunderground v.1.15,2013-02-03 16:50:00,
2013-02-03 11:55:00,45.0,28.4,29.94,WNW,300,2.0,6.0,52,0.00,,,0.00,Wunderground v.1.15,2013-02-03 16:55:00,
2013-02-03 12:00:00,45.4,28.3,29.94,SSE,159,3.0,3.0,51,0.00,,,0.00,Wunderground v.1.15,2013-02-03 17:00:00,
2013-02-03 12:05:00,45.3,28.2,29.94,SE,137,3.0,3.0,51,0.00,,,0.00,Wunderground v.1.15,2013-02-03 17:05:00,
2013-02-03 12:15:00,45.6,28.0,29.93,SSW,203,3.0,3.0,50,0.00,,,0.00,Wunderground v.1.15,2013-02-03 17:15:00,
2013-02-03 12:20:00,45.7,28.1,29.93,WNW,294,3.0,7.0,50,0.00,,,0.00,Wunderground v.1.15,2013-02-03 17:20:00,
2013-02-03 12:25:00,45.8,28.7,29.93,East,96,4.0,7.0,51,0.00,,,0.00,Wunderground v.1.15,2013-02-03 17:25:00,
2013-02-03 12:30:00,45.8,28.2,29.93,SE,142,4.0,4.0,50,0.00,,,0.00,Wunderground v.1.15,2013-02-03 17:30:00,
2013-02-03 12:35:00,45.9,27.8,29.93,SSW,211,3.0,4.0,49,0.00,,,0.00,Wunderground v.1.15,2013-02-03 17:35:00,
2013-02-03 12:40:00,46.1,28.0,29.93,ESE,111,3.0,4.0,49,0.00,,,0.00,Wunderground v.1.15,2013-02-03 17:40:00,
2013-02-03 12:50:00,45.9,27.3,29.92,NW,309,3.0,4.0,48,0.00,,,0.00,Wunderground v.1.15,2013-02-03 17:50:00,
2013-02-03 12:55:00,45.8,27.2,29.92,SSW,202,3.0,4.0,48,0.00,,,0.00,Wunderground v.1.15,2013-02-03 17:55:00,
2013-02-03 13:00:00,45.7,27.1,29.92,SSE,148,3.0,5.0,48,0.00,,,0.00,Wunderground v.1.15,2013-02-03 18:00:00,
2013-02-03 13:05:00,45.2,27.2,29.91,SSW,213,2.0,5.0,49,0.00,,,0.00,Wunderground v.1.15,2013-02-03 18:05:00,
2013-02-03 13:15:00,46.7,27.5,29.91,South,178,3.0,3.0,47,0.00,,,0.00,Wunderground v.1.15,2013-02-03 18:15:00,
2013-02-03 13:20:00,47.1,27.9,29.90,North,350,3.0,3.0,47,0.00,,,0.00,Wunderground v.1.15,2013-02-03 18:20:00,
2013-02-03 13:25:00,47.1,27.9,29.90,ESE,115,3.0,3.0,47,0.00,,,0.00,Wunderground v.1.15,2013-02-03 18:25:00,
2013-02-03 13:30:00,46.9,27.7,29.89,North,5,3.0,3.0,47,0.00,,,0.00,Wunderground v.1.15,2013-02-03 18:30:00,
2013-02-03 13:35:00,46.8,28.1,29.89,ESE,113,3.0,4.0,48,0.00,,,0.00,Wunderground v.1.15,2013-02-03 18:35:00,
2013-02-03 13:40:00,46.9,27.7,29.88,WNW,295,3.0,12.0,47,0.00,,,0.00,Wunderground v.1.15,2013-02-03 18:40:00,
2013-02-03 13:45:00,46.9,28.2,29.88,NW,320,3.0,12.0,48,0.00,,,0.00,Wunderground v.1.15,2013-02-03 18:45:00,
2013-02-03 13:50:00,46.5,27.3,29.88,West,265,3.0,3.0,47,0.00,,,0.00,Wunderground v.1.15,2013-02-03 18:50:00,
2013-02-03 14:00:00,45.6,27.5,29.88,SSE,168,3.0,3.0,49,0.00,,,0.00,Wunderground v.1.15,2013-02-03 19:00:00,
2013-02-03 14:05:00,45.8,27.7,29.88,NW,316,2.0,3.0,49,0.00,,,0.00,Wunderground v.1.15,2013-02-03 19:05:00,
2013-02-03 14:15:00,46.7,29.0,29.88,South,184,2.0,2.0,50,0.00,,,0.00,Wunderground v.1.15,2013-02-03 19:15:00,
2013-02-03 14:20:00,46.9,28.2,29.88,SSE,155,2.0,5.0,48,0.00,,,0.00,Wunderground v.1.15,2013-02-03 19:20:00,
2013-02-03 14:25:00,47.3,29.1,29.88,SW,216,3.0,5.0,49,0.00,,,0.00,Wunderground v.1.15,2013-02-03 19:25:00,
2013-02-03 14:30:00,47.4,28.7,29.87,WNW,301,3.0,3.0,48,0.00,,,0.00,Wunderground v.1.15,2013-02-03 19:30:00,
2013-02-03 14:40:00,47.8,29.0,29.87,South,180,3.0,3.0,48,0.00,,,0.00,Wunderground v.1.15,2013-02-03 19:40:00,
2013-02-03 14:45:00,48.1,28.8,29.88,NW,326,3.0,7.0,47,0.00,,,0.00,Wunderground v.1.15,2013-02-03 19:45:00,
2013-02-03 14:50:00,48.1,28.8,29.87,SSE,151,3.0,6.0,47,0.00,,,0.00,Wunderground v.1.15,2013-02-03 19:50:00,
2013-02-03 14:55:00,48.1,29.3,29.87,WNW,300,3.0,6.0,48,0.00,,,0.00,Wunderground v.1.15,2013-02-03 19:55:00,
2013-02-03 15:05:00,48.4,29.6,29.87,SSE,152,2.0,3.0,48,0.00,,,0.00,Wunderground v.1.15,2013-02-03 20:05:00,
2013-02-03 15:15:00,47.9,29.1,29.88,SW,218,2.0,4.0,48,0.00,,,0.00,Wunderground v.1.15,2013-02-03 20:15:00,
2013-02-03 15:20:00,47.5,28.8,29.88,SSW,207,3.0,3.0,48,0.00,,,0.00,Wunderground v.1.15,2013-02-03 20:20:00,
2013-02-03 15:25:00,47.1,29.4,29.88,SSE,168,2.0,3.0,50,0.00,,,0.00,Wunderground v.1.15,2013-02-03 20:25:00,
2013-02-03 15:30:00,46.9,29.2,29.88,SW,232,2.0,2.0,50,0.00,,,0.00,Wunderground v.1.15,2013-02-03 20:30:00,
2013-02-03 15:40:00,46.5,28.8,29.88,SE,142,1.0,1.0,50,0.00,,,0.00,Wunderground v.1.15,2013-02-03 20:40:00,
2013-02-03 15:45:00,46.4,28.8,29.88,East,81,1.0,1.0,50,0.00,,,0.00,Wunderground v.1.15,2013-02-03 20:45:00,
2013-02-03 15:50:00,46.4,29.2,29.88,SSE,153,1.0,1.0,51,0.00,,,0.00,Wunderground v.1.15,2013-02-03 20:50:00,
2013-02-03 15:55:00,46.5,29.3,29.88,SSW,198,1.0,2.0,51,0.00,,,0.00,Wunderground v.1.15,2013-02-03 20:55:00,
2013-02-03 16:00:00,46.7,29.5,29.88,WNW,284,1.0,1.0,51,0.00,,,0.00,Wunderground v.1.15,2013-02-03 21:00:00,
2013-02-03 16:05:00,47.0,29.8,29.88,SSW,196,1.0,1.0,51,0.00,,,0.00,Wunderground v.1.15,2013-02-03 21:05:00,
2013-02-03 16:15:00,47.5,29.8,29.88,ESE,117,2.0,5.0,50,0.00,,,0.00,Wunderground v.1.15,2013-02-03 21:15:00,
2013-02-03 16:20:00,47.4,29.7,29.88,South,186,2.0,2.0,50,0.00,,,0.00,Wunderground v.1.15,2013-02-03 21:20:00,
2013-02-03 16:25:00,47.4,29.7,29.88,SSE,161,1.0,2.0,50,0.00,,,0.00,Wunderground v.1.15,2013-02-03 21:25:00,
2013-02-03 16:30:00,47.2,30.0,29.88,South,171,1.0,1.0,51,0.00,,,0.00,Wunderground v.1.15,2013-02-03 21:30:00,
2013-02-03 16:35:00,47.0,29.3,29.88,SSW,204,2.0,2.0,50,0.00,,,0.00,Wunderground v.1.15,2013-02-03 21:35:00,
2013-02-03 16:45:00,46.8,30.1,29.89,SSW,193,1.0,4.0,52,0.00,,,0.00,Wunderground v.1.15,2013-02-03 21:45:00,
2013-02-03 16:50:00,46.7,30.5,29.89,SSW,202,2.0,2.0,53,0.00,,,0.00,Wunderground v.1.15,2013-02-03 21:50:00,
2013-02-03 16:55:00,46.7,30.5,29.89,West,280,3.0,3.0,53,0.00,,,0.00,Wunderground v.1.15,2013-02-03 21:55:00,
2013-02-03 17:00:00,46.6,30.8,29.89,West,281,2.0,2.0,54,0.00,,,0.00,Wunderground v.1.15,2013-02-03 22:00:00,
2013-02-03 17:05:00,46.6,30.8,29.89,NW,308,2.0,2.0,54,0.00,,,0.00,Wunderground v.1.15,2013-02-03 22:05:00,
2013-02-03 17:15:00,46.4,31.1,29.90,WSW,258,1.0,1.0,55,0.00,,,0.00,Wunderground v.1.15,2013-02-03 22:15:00,
2013-02-03 17:25:00,46.3,31.0,29.91,WNW,294,1.0,2.0,55,0.00,,,0.00,Wunderground v.1.15,2013-02-03 22:25:00,
2013-02-03 17:30:00,46.3,31.0,29.91,South,172,2.0,9.0,55,0.00,,,0.00,Wunderground v.1.15,2013-02-03 22:30:00,
2013-02-03 17:35:00,46.2,31.4,29.91,WNW,302,2.0,9.0,56,0.00,,,0.00,Wunderground v.1.15,2013-02-03 22:35:00,
2013-02-03 17:40:00,46.0,31.2,29.91,NNW,333,2.0,2.0,56,0.00,,,0.00,Wunderground v.1.15,2013-02-03 22:40:00,
2013-02-03 17:45:00,45.9,31.5,29.91,West,263,2.0,2.0,57,0.00,,,0.00,Wunderground v.1.15,2013-02-03 22:45:00,
2013-02-03 17:55:00,45.5,31.1,29.91,NW,311,1.0,1.0,57,0.00,,,0.00,Wunderground v.1.15,2013-02-03 22:55:00,
2013-02-03 18:00:00,45.2,31.3,29.92,SW,236,0.0,0.0,58,0.00,,,0.00,Wunderground v.1.15,2013-02-03 23:00:00,
2013-02-03 18:05:00,45.0,31.5,29.92,WSW,247,0.0,0.0,59,0.00,,,0.00,Wunderground v.1.15,2013-02-03 23:05:00,
2013-02-03 18:15:00,44.5,32.3,29.93,NW,321,1.0,1.0,62,0.00,,,0.00,Wunderground v.1.15,2013-02-03 23:15:00,
2013-02-03 18:25:00,43.8,32.4,29.93,NW,321,0.0,0.0,64,0.00,,,0.00,Wunderground v.1.15,2013-02-03 23:25:00,
2013-02-03 18:30:00,43.5,32.9,29.94,WNW,287,0.0,0.0,66,0.00,,,0.00,Wunderground v.1.15,2013-02-03 23:30:00,
2013-02-03 18:35:00,43.2,32.6,29.94,WNW,287,0.0,0.0,66,0.00,,,0.00,Wunderground v.1.15,2013-02-03 23:35:00,
2013-02-03 18:40:00,42.9,32.7,29.94,WNW,287,0.0,0.0,67,0.00,,,0.00,Wunderground v.1.15,2013-02-03 23:40:00,
2013-02-03 18:45:00,42.5,32.3,29.94,WNW,287,0.0,0.0,67,0.00,,,0.00,Wunderground v.1.15,2013-02-03 23:45:00,
2013-02-03 18:50:00,42.2,32.4,29.94,WNW,287,0.0,0.0,68,0.00,,,0.00,Wunderground v.1.15,2013-02-03 23:50:00,
2013-02-03 19:00:00,41.5,31.7,29.95,WNW,290,0.0,0.0,68,0.00,,,0.00,Wunderground v.1.15,2013-02-04 00:00:00,
2013-02-03 19:05:00,41.4,31.6,29.95,WNW,290,0.0,0.0,68,0.00,,,0.00,Wunderground v.1.15,2013-02-04 00:05:00,
2013-02-03 19:15:00,41.1,31.3,29.96,WNW,290,0.0,0.0,68,0.00,,,0.00,Wunderground v.1.15,2013-02-04 00:15:00,
2013-02-03 19:20:00,40.9,31.1,29.96,WNW,290,0.0,0.0,68,0.00,,,0.00,Wunderground v.1.15,2013-02-04 00:20:00,
2013-02-03 19:25:00,40.6,31.2,29.96,WNW,290,0.0,0.0,69,0.00,,,0.00,Wunderground v.1.15,2013-02-04 00:25:00,
2013-02-03 19:35:00,39.8,30.8,29.96,WNW,290,0.0,0.0,70,0.00,,,0.00,Wunderground v.1.15,2013-02-04 00:35:00,
2013-02-03 19:40:00,39.4,30.8,29.95,WNW,294,0.0,0.0,71,0.00,,,0.00,Wunderground v.1.15,2013-02-04 00:40:00,
2013-02-03 19:45:00,39.2,30.9,29.96,WNW,294,0.0,0.0,72,0.00,,,0.00,Wunderground v.1.15,2013-02-04 00:45:00,
2013-02-03 19:50:00,38.8,30.5,29.96,WNW,294,0.0,0.0,72,0.00,,,0.00,Wunderground v.1.15,2013-02-04 00:50:00,
2013-02-03 19:55:00,38.5,30.6,29.97,WNW,294,0.0,0.0,73,0.00,,,0.00,Wunderground v.1.15,2013-02-04 00:55:00,
2013-02-03 20:05:00,37.8,30.3,29.97,WNW,294,0.0,0.0,74,0.00,,,0.00,Wunderground v.1.15,2013-02-04 01:05:00,
2013-02-03 20:15:00,37.4,29.9,29.97,WNW,294,0.0,0.0,74,0.00,,,0.00,Wunderground v.1.15,2013-02-04 01:15:00,
2013-02-03 20:20:00,37.4,29.5,29.97,NNW,334,0.0,0.0,73,0.00,,,0.00,Wunderground v.1.15,2013-02-04 01:20:00,
2013-02-03 20:25:00,37.5,29.6,29.97,NNW,334,0.0,0.0,73,0.00,,,0.00,Wunderground v.1.15,2013-02-04 01:25:00,
2013-02-03 20:30:00,37.5,29.3,29.97,NNW,334,0.0,0.0,72,0.00,,,0.00,Wunderground v.1.15,2013-02-04 01:30:00,
2013-02-03 20:40:00,37.3,28.8,29.97,NNW,330,0.0,0.0,71,0.00,,,0.00,Wunderground v.1.15,2013-02-04 01:40:00,
2013-02-03 20:45:00,37.2,28.7,29.97,NNW,329,0.0,0.0,71,0.00,,,0.00,Wunderground v.1.15,2013-02-04 01:45:00,
2013-02-03 20:50:00,37.1,28.2,29.98,NNW,329,0.0,0.0,70,0.00,,,0.00,Wunderground v.1.15,2013-02-04 01:50:00,
2013-02-03 20:55:00,37.1,27.9,29.98,NNW,329,0.0,0.0,69,0.00,,,0.00,Wunderground v.1.15,2013-02-04 01:55:00,
2013-02-03 21:00:00,37.1,27.9,29.98,NNW,329,0.0,0.0,69,0.00,,,0.00,Wunderground v.1.15,2013-02-04 02:00:00,
2013-02-03 21:05:00,36.9,28.0,29.98,NNW,329,0.0,0.0,70,0.00,,,0.00,Wunderground v.1.15,2013-02-04 02:05:00,
2013-02-03 21:15:00,36.2,27.7,29.98,NNW,329,0.0,0.0,71,0.00,,,0.00,Wunderground v.1.15,2013-02-04 02:15:00,
2013-02-03 21:20:00,35.8,27.7,29.99,NNW,329,0.0,0.0,72,0.00,,,0.00,Wunderground v.1.15,2013-02-04 02:20:00,
2013-02-03 21:25:00,35.6,27.5,29.99,NNW,329,0.0,0.0,72,0.00,,,0.00,Wunderground v.1.15,2013-02-04 02:25:00,
2013-02-03 21:30:00,35.5,27.4,29.99,NNW,329,0.0,0.0,72,0.00,,,0.00,Wunderground v.1.15,2013-02-04 02:30:00,
2013-02-03 21:35:00,35.6,27.5,29.99,WNW,295,0.0,0.0,72,0.00,,,0.00,Wunderground v.1.15,2013-02-04 02:35:00,
2013-02-03 21:45:00,35.3,27.2,29.98,WNW,294,0.0,0.0,72,0.00,,,0.00,Wunderground v.1.15,2013-02-04 02:45:00,
2013-02-03 21:50:00,35.2,26.7,29.99,WNW,298,0.0,0.0,71,0.00,,,0.00,Wunderground v.1.15,2013-02-04 02:50:00,
2013-02-03 21:55:00,35.2,26.7,29.99,East,98,0.0,0.0,71,0.00,,,0.00,Wunderground v.1.15,2013-02-04 02:55:00,
2013-02-03 22:05:00,35.2,26.4,29.99,East,98,0.0,0.0,70,0.00,,,0.00,Wunderground v.1.15,2013-02-04 03:05:00,
2013-02-03 22:15:00,34.9,26.4,29.99,East,98,0.0,0.0,71,0.00,,,0.00,Wunderground v.1.15,2013-02-04 03:15:00,
2013-02-03 22:20:00,34.5,26.1,29.99,East,98,0.0,0.0,71,0.00,,,0.00,Wunderground v.1.15,2013-02-04 03:20:00,
2013-02-03 22:25:00,34.4,26.3,29.99,East,98,0.0,0.0,72,0.00,,,0.00,Wunderground v.1.15,2013-02-04 03:25:00,
2013-02-03 22:30:00,34.1,26.0,29.99,East,98,0.0,0.0,72,0.00,,,0.00,Wunderground v.1.15,2013-02-04 03:30:00,
2013-02-03 22:35:00,34.0,25.9,29.99,East,98,0.0,1.0,72,0.00,,,0.00,Wunderground v.1.15,2013-02-04 03:35:00,
2013-02-03 22:40:00,34.0,25.9,29.99,East,98,0.0,0.0,72,0.00,,,0.00,Wunderground v.1.15,2013-02-04 03:40:00,
2013-02-03 22:45:00,33.8,26.1,29.99,East,98,0.0,0.0,73,0.00,,,0.00,Wunderground v.1.15,2013-02-04 03:45:00,
2013-02-03 22:55:00,33.2,25.8,30.00,East,98,0.0,0.0,74,0.00,,,0.00,Wunderground v.1.15,2013-02-04 03:55:00,
2013-02-03 23:00:00,33.0,25.6,30.00,SE,127,0.0,0.0,74,0.00,,,0.00,Wunderground v.1.15,2013-02-04 04:00:00,
2013-02-03 23:05:00,33.0,25.6,30.00,NW,304,0.0,0.0,74,0.00,,,0.00,Wunderground v.1.15,2013-02-04 04:05:00,
2013-02-03 23:15:00,32.8,25.4,30.00,NW,308,0.0,0.0,74,0.00,,,0.00,Wunderground v.1.15,2013-02-04 04:15:00,
2013-02-03 23:20:00,32.6,25.6,30.01,NW,315,0.0,0.0,75,0.00,,,0.00,Wunderground v.1.15,2013-02-04 04:20:00,
2013-02-03 23:30:00,32.6,25.2,30.00,West,281,0.0,0.0,74,0.00,,,0.00,Wunderground v.1.15,2013-02-04 04:30:00,
2013-02-03 23:35:00,32.6,25.2,30.00,WNW,282,0.0,0.0,74,0.00,,,0.00,Wunderground v.1.15,2013-02-04 04:35:00,
2013-02-03 23:40:00,32.9,25.2,30.00,SSW,198,0.0,0.0,73,0.00,,,0.00,Wunderground v.1.15,2013-02-04 04:40:00,
2013-02-03 23:45:00,33.5,25.4,30.00,SE,144,0.0,0.0,72,0.00,,,0.00,Wunderground v.1.15,2013-02-04 04:45:00,
2013-02-03 23:50:00,34.3,25.5,30.01,ENE,58,0.0,0.0,70,0.00,,,0.00,Wunderground v.1.15,2013-02-04 04:50:00,